DW0980 Weather Reports


time (UTC)temp
C
wind
direction
speed
KPH
gust
KPH
rain 1hr
cm
rain 24hr
cm
rain mn
cm
humidity
%
barometer
mb
20260507143021 12 279 9.7 25.7 0.00 0.58 0.00 68 1006.7
20260507141524 11 262 0.0 19.3 0.00 0.58 0.00 70 1006.8
20260507140019 12 253 4.8 22.5 0.00 0.58 0.00 68 1006.8
20260507134518 12 282 1.6 14.5 0.00 0.58 0.00 73 1006.8
20260507133015 11 282 4.8 17.7 0.00 0.58 0.00 72 1006.9
20260507131513 11 281 4.8 17.7 0.00 0.58 0.00 74 1007.1
20260507130025 11 243 8.0 25.7 0.00 0.58 0.00 76 1007.2
20260507124511 11 271 0.0 11.3 0.00 0.58 0.00 80 1007.1
20260507123004 10 267 0.0 6.4 0.00 0.58 0.00 82 1007.0
20260507121502 10 267 0.0 11.3 0.00 0.58 0.00 82 1006.9
20260507120059 9 279 0.0 6.4 0.00 0.58 0.00 88 1007.1
20260507114600 8 279 1.6 6.4 0.00 0.58 0.00 92 1007.2
20260507113053 7 279 0.0 3.2 0.00 0.58 0.00 95 1007.1
20260507111557 6 279 0.0 0.0 0.00 0.58 0.00 95 1007.1
20260507110046 6 279 0.0 0.0 0.00 0.58 0.00 95 1007.0
20260507104544 5 279 0.0 0.0 0.00 0.58 0.00 94 1006.7
20260507103042 5 279 0.0 0.0 0.00 0.58 0.00 93 1006.6
20260507101546 5 279 0.0 0.0 0.00 0.58 0.00 93 1006.6
20260507100040 6 279 0.0 0.0 0.00 0.58 0.00 92 1006.8
20260507094540 6 279 0.0 0.0 0.00 0.58 0.00 93 1006.6
20260507093042 6 274 0.0 11.3 0.00 0.58 0.00 93 1006.9
20260507091537 6 278 0.0 11.3 0.00 0.58 0.00 93 1007.2
20260507090031 6 298 0.0 0.0 0.00 0.58 0.00 94 1007.2
20260507084529 6 298 0.0 0.0 0.00 0.58 0.00 93 1006.6
20260507083029 6 298 0.0 0.0 0.00 0.58 0.00 93 1006.6
20260507081534 6 298 0.0 0.0 0.00 0.58 0.00 93 1006.5
20260507080024 7 298 0.0 0.0 0.00 0.58 0.00 94 1006.4
20260507074522 7 298 0.0 0.0 0.00 0.58 0.00 93 1006.5
20260507073021 7 298 0.0 0.0 0.00 0.58 0.00 92 1006.2
20260507071521 7 298 0.0 0.0 0.00 0.58 0.00 92 1006.3
20260507070017 7 298 0.0 0.0 0.00 0.58 0.00 92 1006.0
20260507064516 7 298 0.0 0.0 0.00 0.58 0.00 91 1005.8
20260507063015 7 298 0.0 6.4 0.00 0.58 0.00 91 1006.2
20260507061514 7 299 0.0 14.5 0.00 0.58 0.00 91 1006.0
20260507060012 7 287 0.0 11.3 0.00 0.58 0.00 93 1005.9
20260507054511 8 271 0.0 11.3 0.00 0.58 0.00 93 1006.1
20260507053010 8 265 1.6 9.7 0.00 0.58 0.00 93 1006.2
20260507051507 8 265 1.6 6.4 0.00 0.58 0.00 94 1005.9
20260507050008 8 264 0.0 0.0 0.00 0.61 0.00 94 1005.8
20260507044502 8 264 1.6 6.4 0.00 0.61 0.00 94 1005.9
20260507043001 8 264 0.0 0.0 0.00 0.61 0.00 94 1005.8
20260507041611 9 264 0.0 0.0 0.00 0.61 0.00 94 1006.2
20260507040059 9 264 0.0 0.0 0.00 0.61 0.61 93 1006.0
20260507034557 9 264 0.0 0.0 0.05 0.61 0.61 93 1005.9
20260507033052 10 264 0.0 0.0 0.10 0.61 0.61 93 1005.8
20260507031550 10 264 0.0 0.0 0.10 0.61 0.61 93 1005.8
20260507030051 10 263 0.0 0.0 0.13 0.61 0.61 93 1005.8
20260507024545 11 263 0.0 0.0 0.08 0.56 0.56 92 1006.0
20260507023043 11 261 1.6 11.3 0.05 0.51 0.51 92 1005.9
20260507021549 12 275 0.0 0.0 0.08 0.51 0.51 94 1005.4
20260507020042 12 274 0.0 9.7 0.05 0.48 0.48 93 1005.0
20260507014554 12 290 1.6 12.9 0.10 0.48 0.48 93 1004.6
20260507013048 13 284 0.0 8.0 0.08 0.46 0.46 93 1004.4
20260507011541 13 294 0.0 0.0 0.05 0.43 0.43 93 1004.2
20260507010039 14 288 0.0 16.1 0.05 0.46 0.43 93 1004.1
20260507004539 15 204 0.0 0.0 0.00 0.41 0.38 94 1003.8
20260507003038 15 204 0.0 0.0 0.00 0.41 0.38 94 1003.4
20260507001547 15 204 0.0 0.0 0.00 0.41 0.38 94 1003.4
20260507000036 15 202 0.0 6.4 0.00 0.43 0.38 94 1003.3
20260506234535 15 201 0.0 0.0 0.00 0.43 0.38 94 1003.0
20260506233040 15 201 0.0 9.7 0.03 0.43 0.38 94 1002.9
20260506231534 15 217 0.0 6.4 0.03 0.43 0.38 94 1003.1
20260506230034 15 230 1.6 9.7 0.03 0.43 0.38 93 1003.1
20260506224533 15 248 0.0 12.9 0.03 0.43 0.38 93 1003.2
20260506223032 15 221 1.6 24.1 0.00 0.41 0.36 92 1003.2
20260506221532 15 179 9.7 19.3 0.00 0.41 0.36 92 1003.2
20260506220033 15 207 11.3 30.6 0.00 0.41 0.36 93 1003.3
20260506214531 16 165 8.0 17.7 0.03 0.41 0.36 94 1003.2
20260506213029 16 179 3.2 14.5 0.03 0.41 0.36 95 1003.0
20260506211526 16 182 1.6 11.3 0.03 0.41 0.36 95 1003.5
20260506210026 16 171 4.8 14.5 0.03 0.41 0.36 95 1003.5
20260506204525 16 195 1.6 12.9 0.05 0.38 0.33 95 1003.5
20260506203024 16 227 0.0 12.9 0.10 0.38 0.33 95 1003.6
20260506201524 16 170 3.2 12.9 0.13 0.38 0.33 95 1003.6
20260506200022 16 166 6.4 16.1 0.13 0.38 0.33 95 1003.7
20260506194520 16 165 3.2 11.3 0.10 0.33 0.28 95 1003.9
20260506193019 16 181 0.0 6.4 0.08 0.28 0.23 94 1004.1
20260506191519 16 181 0.0 6.4 0.08 0.25 0.20 94 1004.0
20260506190018 16 181 0.0 0.0 0.10 0.25 0.20 93 1004.0
20260506184514 16 182 1.6 9.7 0.10 0.23 0.18 93 1004.6
20260506183011 16 202 0.0 6.4 0.10 0.20 0.15 92 1005.0
20260506181510 16 187 1.6 9.7 0.10 0.18 0.13 91 1005.1
20260506180010 16 182 1.6 12.9 0.08 0.15 0.10 89 1005.3
20260506174509 16 227 3.2 16.1 0.05 0.13 0.08 87 1005.6
20260506173008 17 227 6.4 19.3 0.03 0.10 0.05 84 1005.6
20260506171508 18 221 11.3 24.1 0.00 0.08 0.03 80 1005.4
20260506170008 18 220 4.8 14.5 0.00 0.08 0.03 76 1005.3
20260506164506 19 187 3.2 20.9 0.00 0.08 0.03 74 1005.1
20260506163012 19 225 4.8 22.5 0.00 0.08 0.03 74 1005.3
20260506161503 19 198 14.5 25.7 0.00 0.08 0.03 71 1005.6
20260506160109 19 232 4.8 20.9 0.00 0.08 0.03 75 1005.8
20260506154557 19 204 1.6 12.9 0.00 0.08 0.03 76 1006.1
20260506153055 18 222 1.6 14.5 0.00 0.08 0.03 75 1006.5
20260506151554 18 225 0.0 11.3 0.00 0.08 0.03 76 1006.6
20260506150055 18 232 3.2 19.3 0.00 0.08 0.03 75 1006.6
20260506144553 18 231 0.0 11.3 0.00 0.08 0.03 76 1006.4